Погода в Аллерое

Россия / Чеченская Республика     43°12′55″N   46°17′01″E
темп.,
°C
ветер,
м/с
пор.,
м/с
влажн.,
%
обл.,
%
осадки,
мм/ч
давл.,
гПа
погр.,
м
20 июня, вс
вс2000:00+19ююв11724 0.0 101225
03:00+18юз117237 0.0 101211
06:00+21з11600 0.0 1011106
09:00+28ссв11412 0.0 1010657
12:00+36св442488 0.0 10091308
15:00+36всв652712 0.0 10081031
18:00+30всв58440 0.0 1008325
21:00+22ююз11650 0.0 101031
21 июня, пн
пн2100:00+21ююз11720 0.0 101111
03:00+20ююз11750 0.0 101111
06:00+23вюв00640 0.0 1011102
09:00+29всв22460 0.0 1011741
12:00+37всв44220 0.0 10081470
15:00+37в87220 0.0 10061136
18:00+31в710310 0.0 1006338
21:00+24юв23468 0.0 100869
22 июня, вт
вт2200:00+22ююз11553 0.0 100913
03:00+20юв11620 0.0 101011
06:00+24сз11554 0.0 1011104
09:00+30св22354 0.0 1010776
12:00+38вюв13160 0.0 10081577
15:00+39в65152 0.0 10061691
18:00+33в68240 0.0 1007335
21:00+26ю22443 0.0 100844
23 июня, ср
ср2300:00+24ююз115358 0.0 100912
03:00+22ююз11580 0.0 101012
06:00+25юв11480 0.0 101298
09:00+31св32392 0.0 1012929
12:00+34в442671 0.0 10101522
15:00+37всв75210 0.0 10081532
18:00+30всв57380 0.0 1009409
21:00+21ююз01660 0.0 101216
24 июня, чт
чт2400:00+20зюз11680 0.0 101211
03:00+20ю11690 0.0 101211
06:00+24з11580 0.0 1012124
09:00+30с21380 0.0 1011867
12:00+36с22280 0.0 10101667
15:00+38всв53180 0.0 10092197
18:00+33всв55250 0.0 1010449
21:00+23юз22500 0.0 101224